Flag Weather past 2 weeks in Olten, Solothurn, Switzerland

Now
47 °F

Cool.


Feels Like: 47 °F
Forecast: 40 / 63 °F
Wind: 1 mph from Northeast

Location: Wynau

Current Time: Oct 31, 2014 at 9:12:31 PM

Latest Report: Oct 31, 2014 at 8:00 PM


Visibility: N/A

Pressure: 30.30 "Hg

Humidity: 99%

Dew point: 47 °F

Location of OltenLocation

Historic Weather in Olten — Graph

°F

Olten temperature yesterday

Maximum temperature yesterday: 61 °F (at 3:00 PM)
Minimum temperature yesterday: 43 °F (at 12:00 AM)
Average temperature yesterday: 49 °F

Past Weeks' High & Low Weather Summary

 TemperatureHumidityPressure
High70 °F (Oct 19, 4:00 PM)100% (Oct 17, 12:00 AM)30.38 "Hg (Oct 17, 12:00 AM)
Low35 °F (Oct 24, 5:00 AM)50% (Oct 21, 3:00 PM)29.77 "Hg (Oct 21, 7:00 PM)
Average51 °F88%30.18 "Hg
* Reported Oct 16 8:00 PM — Oct 31 7:00 PM, Olten, Weather by CustomWeather, © 2014

Note: Actual official high and low records may vary slightly from our data, if they occured in-between our weather recording intervals... More about our weather records

Advertising

Olten weather history for previous 24 hours

 ConditionsComfort  
Time TempWeatherWind HumidityBarometerVisibility
7:00 PM
Oct 31
49 °FCool.2 mph95%30.29 "HgN/A
6:00 PM51 °FCool.2 mph94%30.28 "HgN/A
5:00 PM54 °FCool.2 mph83%30.26 "HgN/A
4:00 PM58 °FCool.2 mph78%30.25 "HgN/A
3:00 PM59 °FCool.2 mph68%30.26 "HgN/A
2:00 PM57 °FCool.2 mph76%30.28 "HgN/A
1:00 PM52 °FCool.3 mph87%30.32 "HgN/A
12:00 PM47 °FCool.2 mph94%30.36 "HgN/A
11:00 AM44 °FQuite cool.2 mph100%30.38 "HgN/A
10:00 AM41 °FQuite cool.No wind100%30.38 "HgN/A
9:00 AM41 °FQuite cool.1 mph100%30.38 "HgN/A
8:00 AM40 °FChilly.1 mph100%30.37 "HgN/A
7:00 AM40 °FChilly.No wind98%30.36 "HgN/A
6:00 AM40 °FChilly.1 mph100%30.35 "HgN/A
5:00 AM39 °FChilly.1 mph100%30.36 "HgN/A
4:00 AM40 °FChilly.No wind100%30.35 "HgN/A
3:00 AM41 °FQuite cool.1 mph100%30.35 "HgN/A
2:00 AM41 °FQuite cool.No wind100%30.36 "HgN/A
1:00 AM42 °FQuite cool.No wind100%30.35 "HgN/A
12:00 AM43 °FQuite cool.1 mph100%30.34 "HgN/A
11:00 PM
Oct 30
43 °FQuite cool.1 mph100%30.34 "HgN/A
10:00 PM45 °FCool.1 mph100%30.34 "HgN/A
9:00 PM47 °FCool.1 mph99%30.32 "HgN/A
Weather by CustomWeather, © 2014

See weather overviewHow to use our weather pages